sat.trackr.live / text

‹ back to catalog

UNKNOWN

NORAD 81899

UNKNOWN UNKNOWN UNKNOWN

§ Identity

Operator
Country
Launch date
Launch site
Launch vehicle
Mass (kg)
RCS (m²)

External: N2YO · Heavens-Above

§ Orbital elements

Epoch: 2026-05-23T07:52:13.790496Z

Period
109.02 min
Inclination
102.4142°
Eccentricity
0.0178641
Mean motion
13.20807412 rev/d
Perigee alt
1,046.6 km
Apogee alt
1,316.7 km
Semi-major
7,559.8 km
B*
4.6345e-3
RAAN
279.3045°
Arg perigee
229.8124°
Mean anomaly
128.7227°
Rev number
60,031

§ Raw data

UNKNOWN1 81899U          26143.32793739  .00001993  00000+0  46345-2 0  99992 81899 102.4142 279.3045 0178641 229.8124 128.7227 13.20807412600313

JSON: /api/v1/satellites/81899 · /tle

For live sub-satellite position, see the globe view (requires WebGL).

§ Visibility from observer

Set your observer location to see the next 7 days of passes ≥ 10°. The values pass through the URL so the page stays shareable.

No JS? Fill the form by hand. The geolocation button needs JavaScript.